Temperature
11 11 11 11 11 11 11 11 11 11 11 11 11 11 10 10 10 10 10 10 10 10 10 10 10 10 10 10 10 10 10 10 9 10 10 10 10 9 10 10 10 10 10
10 10 10 10 10 10 10 10 10 10 10 10 10 10 10 10 10 10 10 10 10 10 10 10 10 10 9 9 9 9 9 9 9 9 9 9 9 9 9 9 9 10 10
10 10 10 10 10 10 10 10 10 10 10 10 10 10 10 10 10 10 10 10 10 9 9 9 9 9 9 9 9 9 9 9 8 8 8 8 8 9 9 9 9 9 9
9 9 9 9 9 9 9 9 9 9 9 9 9 9 9 9 9 9 9 9 9 9 9 9 9 9 8 8 8 8 8 8 8 8 8 8 8 8 8 8 8 8 8
9 9 9 9 9 9 9 9 9 9 9 9 9 9 9 9 9 9 9 8 8 8 8 8 8 8 8 8 8 8 8 8 8 8 8 8 8 8 8 8 8 8 8
8 8 8 8 8 8 8 8 8 8 8 8 8 8 8 8 8 8 8 8 8 8 8 8 8 8 8 8 7 7 7 7 7 7 7 7 7 7 7 7 7 7 7
8 8 8 8 8 8 7 7 7 7 7 7 7 7 8 7 7 7 7 7 7 7 7 7 7 7 7 7 7 7 7 7 7 6 7 7 7 7 7 7 7 7 7
7 7 7 7 7 7 7 7 7 7 7 6 6 6 6 6 6 7 7 7 6 6 6 6 6 7 6 6 6 6 6 6 6 6 6 6 6 6 6 6 6 6 6
7 7 6 6 6 6 6 6 6 6 6 6 5 5 5 5 5 5 6 6 6 6 6 6 6 6 6 6 6 6 6 6 5 5 5 5 5 6 6 6 6 6 6
6 6 6 6 6 6 6 6 6 5 5 5 5 5 5 4 4 4 5 5 5 5 5 5 5 5 5 5 5 5 5 5 5 5 5 5 5 5 5 5 5 5 5
6 5 5 5 5 5 5 5 5 5 5 5 4 4 4 4 4 4 4 4 5 5 5 5 5 4 4 4 4 4 4 4 4 4 4 4 4 4 4 5 5 5 5
5 5 5 5 5 5 5 5 4 4 4 4 4 4 3 3 3 3 3 3 4 4 4 4 4 4 4 4 4 4 4 3 3 3 4 3 3 4 4 4 4 4 4
4 4 4 4 4 4 4 4 4 4 4 4 3 3 3 3 3 3 3 3 3 3 3 4 4 3 3 3 3 3 3 3 3 3 3 3 3 3 3 3 3 3 4
4 4 4 4 3 4 4 4 3 3 3 3 3 3 3 3 2 2 2 2 2 2 2 3 3 3 3 3 3 3 2 2 2 2 2 2 2 2 2 2 2 3 3
3 3 3 3 3 3 3 3 3 3 3 3 2 2 2 2 2 2 2 2 1 1 1 2 2 2 2 2 2 2 2 2 2 2 2 2 2 2 2 2 2 2 2
3 2 2 2 3 3 2 2 2 2 2 2 2 2 2 2 2 1 1 1 1 1 1 1 1 2 1 1 1 1 1 1 1 1 1 1 1 1 1 1 2 1 2
2 2 2 2 2 2 2 2 2 2 1 1 1 1 1 1 1 1 1 1 1 0 0 1 1 1 1 1 1 1 1 1 1 1 1 1 1 1 1 1 1 1 1
2 2 1 1 1 1 1 1 1 1 1 1 1 1 1 1 1 0 0 0 0 0 -0 -0 0 0 0 0 0 0 0 0 0 0 0 0 0 0 0 0 0 0 0
1 1 1 1 1 1 1 1 1 1 0 0 0 0 0 0 0 0 -0 -0 -0 -0 -1 -1 -0 -0 -0 -0 -0 -0 -0 -0 -0 -0 -0 -0 -0 -0 -0 -0 -0 -0 -0
1 1 1 1 1 1 1 1 0 0 0 -0 -0 -0 -0 -0 -0 -0 -1 -1 -1 -1 -1 -1 -1 -1 -1 -1 -1 -1 -1 -1 -1 -1 -1 -1 -1 -1 -1 -0 -0 -0 -0
0 0 0 0 -0 -0 0 0 -0 -0 -0 -0 -0 -1 -1 -1 -1 -1 -1 -1 -1 -1 -1 -1 -1 -1 -1 -1 -1 -1 -1 -1 -1 -1 -1 -1 -1 -1 -1 -1 -1 -1 -1
-0 -0 -0 -1 -1 -1 -1 -1 -1 -1 -1 -1 -1 -1 -1 -1 -1 -1 -1 -1 -1 -1 -1 -1 -1 -1 -1 -1 -2 -2 -2 -2 -2 -2 -2 -1 -1 -1 -1 -1 -1 -1 -1
-1 -1 -1 -1 -1 -1 -1 -1 -1 -1 -1 -1 -1 -1 -1 -1 -1 -1 -1 -2 -2 -1 -1 -2 -2 -2 -2 -2 -2 -2 -2 -2 -2 -2 -2 -2 -1 -1 -1 -1 -1 -1 -1
-1 -1 -1 -1 -1 -1 -2 -2 -2 -2 -2 -2 -2 -2 -2 -2 -2 -2 -2 -2 -2 -2 -2 -2 -2 -2 -2 -2 -2 -2 -2 -3 -3 -3 -3 -3 -2 -2 -2 -2 -2 -2 -2
-2 -2 -2 -2 -2 -2 -2 -2 -2 -2 -2 -2 -2 -2 -2 -2 -2 -2 -2 -2 -2 -2 -2 -2 -2 -2 -2 -2 -3 -3 -3 -3 -3 -3 -3 -3 -3 -2 -2 -2 -2 -2 -2
-2 -2 -2 -2 -2 -2 -2 -3 -3 -3 -3 -3 -3 -3 -3 -3 -3 -3 -3 -2 -2 -2 -2 -2 -2 -2 -2 -2 -3 -3 -3 -3 -3 -3 -3 -3 -3 -3 -3 -2 -2 -2 -2
Wind_Speed
3 3 2 2 3 3 3 3 3 3 3 2 2 2 2 1 1 2 3 4 4 4 4 4 4 4 4 4 4 5 5 5 6 6 6 6 7 7 8 8 9 10 10
3 2 2 2 2 2 2 2 2 2 1 1 1 1 1 1 1 1 2 3 4 4 4 5 5 5 5 5 5 5 5 6 7 7 7 7 8 8 9 9 9 10 11
4 3 2 1 1 2 2 3 2 2 1 1 1 1 1 1 1 1 2 2 3 4 4 5 6 6 6 6 6 6 6 6 7 8 8 8 9 9 10 10 10 11 11
4 3 2 1 1 2 2 2 1 1 1 1 1 2 2 1 1 1 2 2 2 3 4 5 5 6 7 8 8 7 8 8 8 8 8 9 9 10 11 11 12 12 12
3 3 2 1 2 2 1 1 1 1 0 1 1 1 1 1 1 1 1 1 1 2 3 4 5 6 7 8 9 9 8 8 8 8 9 9 10 10 11 12 13 13 13
3 3 2 2 2 2 1 1 1 1 0 1 1 2 2 2 1 1 1 1 1 2 2 3 4 6 7 8 9 9 9 9 9 9 10 10 10 11 11 12 13 13 14
3 3 2 2 2 2 1 1 1 1 1 1 1 2 2 1 1 1 1 1 1 2 2 3 4 5 6 7 8 9 9 10 10 10 10 11 11 12 12 13 13 14 14
3 3 3 2 2 1 1 1 1 1 1 1 1 0 2 2 2 1 1 1 1 2 2 4 4 4 5 5 6 7 8 10 11 11 12 12 13 13 13 13 14 14 15
2 2 3 2 2 2 1 1 2 2 1 0 0 1 1 2 2 2 1 1 1 1 2 4 4 4 4 4 5 6 8 9 10 12 12 13 13 14 15 14 14 14 14
2 2 2 2 2 2 2 1 1 2 2 2 1 0 1 1 1 2 3 2 2 2 3 3 4 4 5 4 5 7 8 9 10 11 12 13 13 14 14 14 14 14 14
1 1 2 2 1 1 2 2 1 2 2 2 2 1 1 1 1 2 3 3 3 2 3 3 3 3 4 5 5 7 8 9 10 11 12 13 13 14 14 15 14 14 15
0 1 1 1 1 1 2 2 2 3 2 2 2 2 2 2 2 2 3 3 4 3 3 3 2 3 4 5 5 8 9 9 10 11 12 11 12 13 13 14 14 14 15
1 1 1 1 1 2 2 2 2 2 3 3 3 3 3 3 2 2 3 3 4 3 3 2 2 3 3 4 6 8 8 9 10 10 10 10 10 11 11 13 13 14 14
2 2 2 2 2 2 2 2 2 2 2 3 4 3 3 3 3 3 3 2 3 3 3 3 2 2 3 5 6 7 7 8 8 9 9 9 9 10 11 12 13 13 14
2 1 2 2 2 2 2 2 2 3 3 3 4 4 4 3 3 3 3 3 3 4 4 3 2 2 4 5 6 6 6 7 8 8 9 8 9 10 11 12 12 13 13
1 2 2 2 2 2 2 2 2 2 3 3 3 4 4 3 3 3 3 3 4 4 4 2 2 3 4 5 7 6 6 8 8 9 9 9 9 10 11 12 12 13 13
2 2 2 2 2 2 2 3 3 3 4 4 3 4 4 4 3 3 3 3 3 4 5 4 3 3 3 3 5 6 6 6 6 8 9 9 10 10 11 12 12 12 13
2 2 2 2 3 3 3 3 4 4 4 4 4 4 5 4 4 3 3 4 4 4 4 5 3 3 3 3 3 3 5 5 5 7 9 9 10 11 11 11 12 12 13
2 2 3 3 3 3 3 4 4 4 5 5 5 5 5 4 4 3 3 4 4 3 3 4 4 3 3 2 2 3 4 3 5 6 8 9 9 11 12 12 12 12 12
2 3 3 4 4 4 4 4 4 4 5 5 5 5 5 5 5 5 4 4 4 3 3 3 4 3 3 2 1 2 4 3 4 5 6 7 9 11 12 12 11 11 12
3 3 3 3 3 3 4 4 5 5 5 5 5 5 5 6 7 6 5 4 4 3 3 3 3 3 3 2 2 2 4 4 4 3 3 4 6 6 8 10 10 10 11
3 2 3 3 3 4 6 7 5 5 5 5 5 5 5 6 7 8 9 8 6 5 4 4 3 4 4 3 3 3 3 4 4 2 3 5 4 5 5 6 9 11 11
3 3 3 3 4 5 7 7 7 5 5 5 5 5 5 5 6 5 7 7 7 8 7 5 5 5 5 4 4 4 4 4 5 4 3 5 4 5 5 7 11 11 10
3 3 3 4 4 5 7 7 6 4 4 5 5 6 6 5 6 5 5 5 5 5 6 5 5 5 5 4 5 5 4 4 4 4 3 4 4 4 5 6 9 9 9
3 3 3 4 4 5 7 7 6 3 4 4 5 5 5 5 8 7 5 4 4 4 5 6 6 6 7 7 4 2 2 3 4 3 2 2 3 4 4 4 5 8 9
3 3 4 4 5 5 7 7 6 3 4 4 4 5 7 7 8 7 4 4 4 3 2 2 3 3 3 4 5 4 3 3 3 3 2 1 2 3 3 3 3 5 6
Wind_Direction
93 83 76 76 77 87 93 87 84 85 77 61 59 70 68 44 12 357 340 333 329 322 317 315 312 308 310 303 298 295 291 292 295 298 303 306 308 308 308 309 311 309 309
113 99 78 73 67 80 95 103 99 92 80 66 40 29 27 349 328 336 334 336 338 330 322 320 320 315 312 307 302 301 301 295 292 294 296 299 302 304 305 305 306 308 309
130 123 103 82 78 91 93 92 82 71 58 35 358 347 356 322 312 318 321 334 341 339 330 323 320 321 319 312 307 301 301 302 294 287 288 292 295 295 297 299 299 300 303
145 133 126 127 111 105 103 97 92 73 28 356 324 319 326 318 290 296 306 318 336 343 338 332 327 323 321 316 310 304 301 301 300 293 287 287 291 292 293 294 296 296 297
152 138 129 116 116 93 83 101 72 113 18 325 299 302 304 282 272 301 287 299 303 323 332 329 332 327 322 317 313 308 303 301 300 301 295 290 290 294 295 296 296 295 294
152 138 120 118 118 110 105 115 108 49 62 298 303 310 297 278 255 269 264 296 311 331 337 331 330 326 322 317 315 311 306 304 306 305 304 299 294 294 293 294 294 294 294
153 137 123 123 123 147 171 153 129 57 7 351 23 331 318 295 257 269 261 262 327 337 342 332 324 318 315 316 317 312 310 306 307 307 308 305 303 299 293 292 293 295 295
156 151 137 147 147 150 149 148 127 116 30 42 110 33 327 326 317 285 274 235 288 340 337 325 320 315 314 313 313 315 313 311 310 309 310 306 305 304 299 295 294 295 295
140 143 139 135 142 155 186 194 158 150 185 277 119 152 180 256 297 303 291 292 316 314 317 323 322 321 316 313 309 313 315 314 313 311 310 309 310 310 306 302 300 299 299
109 134 133 130 146 161 180 209 171 172 177 205 225 216 200 181 227 304 308 304 303 291 291 307 313 320 315 312 307 314 316 314 313 314 312 310 310 313 312 309 307 308 305
105 112 133 133 163 171 179 186 178 185 193 197 199 201 216 226 211 228 279 302 310 288 288 284 290 304 305 308 307 311 316 314 313 314 314 315 316 316 316 314 316 314 309
85 122 144 160 183 181 189 198 197 195 201 203 209 209 206 200 211 220 250 279 290 292 294 282 272 285 293 302 304 312 312 311 312 312 312 314 314 316 319 319 319 317 315
251 248 218 198 212 203 197 186 188 207 206 209 217 224 225 228 218 222 242 268 281 289 288 283 273 284 297 303 306 311 308 310 312 314 316 317 318 320 321 321 320 319 319
224 228 225 211 216 213 206 187 200 219 215 220 230 228 234 239 226 222 224 242 283 288 274 268 286 282 305 306 309 317 312 312 315 318 320 321 324 325 326 324 321 320 320
219 211 222 231 233 226 217 204 214 224 223 228 236 235 236 243 228 226 227 224 231 269 275 259 266 287 310 305 310 315 314 314 316 318 320 321 322 323 325 323 321 320 319
223 210 226 235 238 235 223 211 221 224 226 240 240 238 241 245 236 228 225 227 224 233 259 258 259 282 299 304 310 317 310 313 315 315 315 316 318 318 320 319 318 317 318
226 225 232 239 237 238 233 222 226 225 231 245 247 240 244 245 241 234 228 229 230 227 253 276 267 285 282 293 310 311 311 308 308 313 313 316 316 316 316 317 318 317 316
238 239 234 237 241 245 243 235 238 237 230 239 246 245 248 248 247 237 230 235 238 234 240 268 283 285 279 282 291 302 312 311 307 311 312 315 315 314 315 316 314 315 315
246 246 232 235 241 243 245 243 238 238 237 238 240 244 248 242 251 248 238 239 239 245 237 252 277 282 282 284 297 305 304 299 306 310 308 311 314 315 316 314 313 313 315
246 245 241 240 241 242 242 245 240 239 242 243 241 241 240 236 239 242 241 236 231 235 237 245 267 281 283 284 283 300 311 312 307 310 306 309 310 312 313 313 312 313 315
251 248 248 249 251 248 245 243 235 237 237 241 244 243 241 244 246 248 246 235 224 227 236 247 259 276 277 280 277 280 297 309 301 289 308 310 309 308 310 310 314 316 316
265 259 255 251 254 258 265 264 254 237 236 235 242 246 246 248 251 260 259 253 239 231 233 239 258 259 265 265 266 274 287 303 299 294 306 301 300 293 300 302 307 314 317
262 260 262 257 255 262 272 272 266 255 238 235 233 238 252 255 256 248 256 261 259 252 241 235 242 248 253 249 247 259 265 275 278 278 294 292 289 289 296 302 306 311 316
257 258 262 261 262 271 279 278 275 263 246 239 235 235 240 251 249 245 239 244 245 248 247 243 236 243 250 241 234 244 254 278 281 274 264 279 285 286 297 303 305 312 324
258 259 262 257 258 273 281 279 273 252 246 250 247 241 241 246 255 253 238 243 256 262 266 261 258 261 268 269 261 250 253 270 288 281 255 254 282 298 292 289 306 318 325
255 258 262 255 254 263 276 276 269 244 243 250 252 250 252 252 255 253 229 227 248 261 265 283 285 282 275 267 263 238 227 247 277 277 251 257 285 315 305 284 290 315 320
Height
1514 1515 1516 1517 1518 1519 1520 1520 1521 1521 1522 1523 1524 1524 1524 1525 1525 1526 1526 1526 1526 1527 1527 1527 1527 1527 1527 1527 1527 1526 1526 1526 1525 1525 1524 1524 1523 1523 1522 1521 1521 1521 1520
1512 1513 1514 1515 1516 1516 1517 1518 1519 1519 1520 1520 1521 1522 1522 1522 1523 1523 1523 1523 1524 1524 1524 1524 1524 1524 1524 1524 1524 1524 1523 1523 1522 1522 1521 1521 1520 1519 1519 1518 1517 1517 1516
1510 1511 1512 1513 1513 1514 1515 1516 1516 1517 1517 1518 1518 1519 1519 1520 1520 1520 1521 1521 1521 1521 1521 1521 1521 1521 1521 1521 1521 1521 1520 1520 1519 1519 1518 1518 1517 1516 1515 1515 1514 1513 1512
1507 1508 1509 1510 1511 1511 1512 1513 1513 1514 1514 1515 1515 1516 1516 1517 1517 1517 1517 1518 1518 1518 1518 1518 1518 1517 1517 1517 1517 1517 1517 1516 1516 1515 1515 1514 1513 1513 1512 1511 1510 1509 1508
1505 1505 1506 1507 1508 1508 1509 1510 1510 1511 1511 1512 1512 1512 1513 1513 1514 1514 1514 1514 1514 1514 1514 1514 1514 1514 1514 1514 1513 1513 1513 1513 1512 1512 1511 1510 1510 1509 1508 1507 1506 1505 1504
1502 1503 1503 1504 1505 1506 1507 1507 1507 1508 1508 1508 1509 1509 1509 1510 1510 1510 1511 1511 1511 1511 1511 1511 1511 1510 1510 1510 1510 1509 1509 1509 1508 1508 1507 1506 1506 1505 1504 1503 1502 1501 1500
1499 1500 1500 1501 1502 1503 1503 1504 1504 1505 1505 1505 1505 1505 1505 1506 1506 1506 1507 1507 1507 1507 1507 1507 1507 1507 1506 1506 1506 1505 1505 1505 1504 1503 1503 1502 1501 1500 1499 1498 1497 1496 1495
1496 1496 1497 1498 1499 1499 1500 1500 1501 1501 1502 1502 1503 1502 1502 1503 1502 1502 1503 1503 1504 1504 1503 1503 1503 1502 1502 1502 1501 1501 1500 1500 1499 1499 1498 1498 1497 1495 1494 1494 1493 1491 1490
1492 1493 1494 1495 1495 1496 1496 1497 1498 1498 1499 1499 1500 1501 1500 1499 1499 1499 1499 1499 1500 1500 1499 1499 1499 1498 1498 1497 1497 1496 1496 1495 1495 1494 1494 1493 1492 1491 1490 1489 1487 1486 1485
1488 1489 1490 1491 1492 1492 1493 1494 1494 1495 1496 1496 1497 1497 1499 1498 1498 1495 1495 1495 1495 1496 1496 1495 1495 1494 1493 1493 1492 1492 1491 1491 1490 1490 1489 1488 1487 1486 1485 1484 1483 1481 1480
1485 1486 1487 1487 1488 1489 1490 1490 1491 1492 1492 1492 1493 1494 1494 1494 1494 1494 1492 1491 1491 1492 1492 1492 1491 1490 1489 1489 1488 1487 1487 1486 1485 1485 1484 1483 1482 1481 1480 1479 1477 1476 1474
1482 1483 1484 1484 1485 1486 1486 1487 1487 1488 1488 1489 1489 1490 1490 1490 1490 1490 1489 1487 1486 1487 1487 1487 1486 1486 1485 1485 1484 1483 1482 1481 1480 1480 1479 1478 1477 1476 1475 1473 1472 1471 1469
1478 1479 1480 1481 1482 1482 1483 1483 1483 1484 1484 1485 1485 1485 1486 1486 1487 1487 1486 1484 1483 1482 1482 1482 1482 1482 1481 1480 1479 1479 1478 1477 1476 1475 1474 1473 1472 1470 1469 1468 1467 1466 1464
1475 1476 1477 1477 1478 1478 1479 1479 1479 1480 1480 1480 1481 1481 1481 1482 1482 1482 1482 1482 1479 1478 1477 1477 1477 1477 1477 1476 1475 1474 1473 1472 1471 1470 1469 1468 1467 1466 1464 1463 1462 1460 1458
1472 1473 1473 1473 1474 1474 1474 1475 1475 1475 1476 1476 1476 1477 1477 1477 1477 1478 1478 1478 1478 1475 1473 1472 1473 1473 1473 1472 1471 1470 1469 1468 1467 1466 1465 1464 1462 1461 1460 1458 1457 1455 1453
1469 1469 1469 1470 1470 1470 1470 1470 1470 1471 1471 1471 1472 1472 1472 1472 1473 1473 1473 1473 1473 1473 1470 1468 1468 1469 1468 1468 1467 1466 1465 1464 1463 1462 1461 1459 1458 1457 1455 1454 1452 1450 1448
1465 1465 1465 1466 1466 1466 1466 1466 1466 1466 1467 1467 1467 1467 1467 1468 1468 1468 1468 1468 1468 1468 1466 1464 1465 1465 1464 1464 1463 1462 1461 1459 1458 1457 1456 1455 1453 1452 1451 1449 1447 1445 1444
1461 1461 1462 1462 1462 1462 1462 1462 1462 1462 1462 1462 1463 1463 1463 1463 1463 1463 1463 1463 1463 1463 1462 1460 1460 1460 1460 1459 1459 1458 1457 1456 1454 1453 1452 1451 1449 1448 1446 1444 1443 1441 1439
1457 1457 1457 1457 1457 1457 1457 1457 1458 1458 1458 1458 1458 1458 1458 1458 1458 1458 1458 1458 1458 1458 1458 1457 1456 1456 1456 1455 1454 1454 1453 1452 1451 1449 1448 1447 1445 1444 1442 1440 1438 1437 1435
1453 1453 1453 1453 1453 1453 1453 1453 1453 1453 1453 1453 1453 1453 1453 1453 1453 1453 1453 1453 1454 1454 1454 1453 1453 1452 1452 1451 1451 1450 1448 1448 1447 1446 1444 1443 1441 1440 1438 1436 1434 1433 1431
1449 1449 1449 1449 1449 1448 1448 1448 1448 1448 1448 1448 1448 1448 1448 1448 1448 1449 1449 1449 1450 1450 1450 1449 1449 1448 1448 1447 1447 1446 1445 1444 1443 1442 1440 1439 1437 1435 1434 1432 1430 1429 1427
1445 1445 1445 1444 1444 1444 1444 1444 1443 1443 1443 1443 1443 1443 1443 1444 1444 1444 1444 1445 1446 1446 1445 1445 1445 1444 1444 1444 1443 1443 1442 1440 1438 1438 1436 1434 1434 1432 1430 1429 1427 1425 1424
1441 1441 1441 1440 1440 1440 1440 1439 1439 1439 1439 1438 1438 1439 1439 1439 1439 1439 1440 1440 1441 1441 1442 1442 1441 1440 1440 1440 1439 1439 1438 1437 1435 1434 1433 1429 1429 1428 1427 1425 1423 1422 1420
1437 1437 1436 1436 1436 1435 1435 1435 1435 1435 1434 1434 1434 1434 1434 1434 1434 1435 1435 1436 1436 1436 1437 1437 1437 1437 1437 1437 1436 1435 1434 1433 1432 1431 1430 1427 1425 1424 1423 1421 1420 1419 1417
1434 1433 1433 1432 1432 1431 1431 1431 1431 1430 1430 1430 1430 1430 1430 1430 1430 1431 1431 1431 1431 1431 1432 1433 1433 1433 1433 1433 1432 1431 1430 1429 1427 1426 1426 1424 1422 1420 1419 1418 1417 1415 1414
1430 1429 1429 1428 1428 1427 1427 1427 1427 1426 1426 1425 1426 1426 1426 1426 1426 1427 1427 1427 1427 1427 1428 1428 1428 1428 1428 1428 1428 1428 1427 1426 1424 1423 1422 1421 1419 1418 1415 1413 1413 1412 1411